Regional Weather Roundup
Issued by NWS Wakefield, VA

Home | Current Version | Previous Version | Text Only | Print | Product List | Glossary Off
Versions: 1 2 3 4 5 6 7 8 9 10 11 12 13 14 15 16 17 18 19 20 21 22 23 24 25 26

000
ASUS41 KAKQ 061915
RWRAKQ

REGIONAL WEATHER ROUNDUP
NATIONAL WEATHER SERVICE WAKEFIELD VA
200 PM EST TUE DEC 06 2016

Note: "fair" indicates few or no clouds below 12,000 feet with no
significant weather and/or obstructions to visibility. * = Denotes
station may not report precipitation (e.g., rain,snow,etc.),
thunder or fog.

VAZ042-051-052>054-056-062000-
NORTHERN VIRGINIA

CITY           SKY/WX    TMP DP  RH WIND       PRES   REMARKS
WASH NATIONAL  RAIN      42  40  92 NE15      29.87F FOG
DULLES         HVY RAIN  39  37  92 NE8       29.88F FOG
FORT BELVOIR   NOT AVBL
QUANTICO       LGT RAIN  42  39  89 NE13      29.86F FOG
FREDERICKSBRG* NOT AVBL
STAFFORD*      NOT AVBL
WARRENTON      NOT AVBL
CULPEPER*      NOT AVBL
MANASSAS*      RAIN      41  39  93 NE5       29.88F
LEESBURG*      NOT AVBL
WINCHESTER     NOT AVBL
FRONT ROYAL*   NOT AVBL
LURAY*         NOT AVBL
$$

VAZ048-049-060>072-079>083-062000-
CENTRAL AND SOUTH CENTRAL VIRGINIA

CITY           SKY/WX    TMP DP  RH WIND       PRES   REMARKS
RICHMOND       NOT AVBL
CHESTERFIELD*  CLOUDY    45  28  53 NE7G16    29.78F
PETERSBURG*    NOT AVBL
HANOVER        LGT RAIN  45  43  93 NE5       29.79F FOG
TAPPAHANNOCK*  NOT AVBL
QUINTON*       NOT AVBL
CHARLOTTSVILLE HVY RAIN  40  37  89 N8        29.83F FOG
GORDONSVILLE*  NOT AVBL
ORANGE*        NOT AVBL
LOUISA*        NOT AVBL
BUMPASS*       NOT AVBL
FARMVILLE*     NOT AVBL
CREWE*         NOT AVBL
FORT PICKETT*  NOT AVBL
CHASE CITY*    NOT AVBL
CLARKSVILLE*   NOT AVBL
SOUTH HILL*    NOT AVBL
LAWRENCEVILLE* NOT AVBL
EMPORIA*       NOT AVBL
$$

VAZ088>098-062000-
SOUTHEAST VIRGINIA

CITY           SKY/WX    TMP DP  RH WIND       PRES   REMARKS
NORFOLK        LGT RAIN  53  51  93 E16G24    29.74F FOG
VIRGINIA BEACH LGT RAIN  54  52  93 E18G26    29.72F FOG
NORFOLK NAVAL  LGT RAIN  53  51  93 E17G29    29.74F VSB 1
WEST POINT*    NOT AVBL
SALUDA*        NOT AVBL
NEWPORT NEWS   NOT AVBL
LANGLEY AFB    NOT AVBL
FORT EUSTIS    NOT AVBL
WILLIAMSBURG*  NOT AVBL
HR EXEC AP*    NOT AVBL
FRANKLIN*      NOT AVBL
US460-WAKEFLD  LGT RAIN  48  48 100 NE8       29.75F VSB 1
$$

VAZ020-022-025-037-045-062000-
WEST CENTRAL AND SOUTHWEST VIRGINIA

CITY           SKY/WX    TMP DP  RH WIND       PRES   REMARKS
STAUNTON*      NOT AVBL
WAYNESBORO*    NOT AVBL
HOT SPRINGS VA NOT AVBL
LYNCHBURG      NOT AVBL
DANVILLE       LGT RAIN  42  42 100 NE13      29.73F FOG
SOUTH BOSTON*  NOT AVBL
MARTINSVILLE   NOT AVBL
ROANOKE        LGT RAIN  40  38  93 NE7       29.84S FOG
BLACKSBURG     NOT AVBL
DUBLIN*        NOT AVBL
MARION*        NOT AVBL
HILLSVILLE*    NOT AVBL
RICHLANDS*     NOT AVBL
WISE*          NOT AVBL
ABINGDON*      NOT AVBL
$$

MDZ021>025-VAZ099-100-062000-
SOUTHERN MARYLAND AND THE DELMARVA PENINSULA

CITY           SKY/WX    TMP DP  RH WIND       PRES   REMARKS
PATUXENT RIVER LGT RAIN  45  43  93 NE15      29.85F FOG
BAY BRIDGE APT LGT RAIN  43  39  87 NE8       29.91F FOG
LEONARDTOWN    CLOUDY    43  41  93 E8        29.87F
DOVER          NOT AVBL
GEORGETOWN     NOT AVBL
EASTON         LGT RAIN  45  41  87 E9        29.92F FOG
CAMBRIDGE      PTSUNNY   43  41  93 NE5       29.88F
SALISBURY      NOT AVBL
OCEAN CITY     LGT RAIN  50  46  86 E14       29.89F
WALLOPS ISLAND HVY RAIN  50  49  96 E18       29.87F
ACCOMACK*      NOT AVBL
$$

NCZ012>017-030>032-062000-
NORTH CENTRAL AND EASTERN NORTH CAROLINA

CITY           SKY/WX    TMP DP  RH WIND       PRES   REMARKS
ROANOKE RAPIDS DRIZZLE   48  48 100 NE6       29.69F
RALEIGH        LGT RAIN  48  47  96 NE8       29.69F VSB 1
ELIZABETH CITY NOT AVBL
AHOSKIE*       DRIZZLE   51  51  99 NE7       29.70F
EDENTON*       LGT RAIN  59  57  92 E14G25    29.69F
CURRITUCK*     CLOUDY    57  57 100 E10G16    29.72F FOG
KILL DEVIL HLS DRIZZLE   58  58 100 E10G21    29.70F
MANTEO         LGT RAIN  60  60 100 SE18G28   29.70F
CAPE HATTERAS  LGT RAIN  64  63  96 SE22      29.69F FOG
TARBORO*       NOT AVBL
GOLDSBORO      NOT AVBL
WASHINGTON     CLOUDY    57  56  98 E8        29.65F FOG
GREENVILLE     LGT RAIN  55  55 100 E6        29.69F
NEW BERN       NOT AVBL
WILMINGTON     CLOUDY    66  65  96 E5        29.64R
$$

VAZ048-062000-
ELSEWHERE

CITY           SKY/WX    TMP DP  RH WIND       PRES   REMARKS
HARRISBURG PA  NOT AVBL
BALTIMORE      NOT AVBL
ANNAPOLIS      LGT RAIN  44  39  82 E9        29.90F
ANDREWS AFB    NOT AVBL
PHILADELPHIA   NOT AVBL
HENDERSON NC   RAIN      42  41  97 NE7       29.71F
GREENSBORO     RAIN      43  43 100 NE12      29.71F FOG
ROCKY MOUNT    LGT RAIN  50  50 100 N8        29.67F VSB 1
$$

VAZ100-062000-
MARINE

STATION/POSITION TIME  TEMP    WIND        PRES    WAVE   SWELL
                       AIR SEA DIR/SP/G            HT/PER HT/PER
                 (UTC) (F)     (DEG/KT/KT) (MB)    (FT/S) (FT/S)
64NM E OF VA BCH 1750   60 60  100/ 19/ 23 1010.0    8/ 6   3/ 9
DIAMOND SHLS NC  1750   68 75  110/ 25/ 29 1006.8    9/ 8   3/15
$$




USA.gov is the U.S. government's official web portal to all federal, state and local government web resources and services.